Regional Weather Roundup
Issued by NWS State College, PA

Home | Current Version | Previous Version | Graphics & Text | Print | Product List | Glossary On
Versions: 1 2 3 4 5 6 7 8 9 10 11 12 13 14 15 16 17 18 19 20 21 22 23 24 25 26 27 28 29 30 31 32 33 34 35 36 37 38 39 40 41 42 43 44 45 46 47 48 49 50
000
ASUS41 KCTP 251310
RWRCTP

REGIONAL WEATHER ROUNDUP
NATIONAL WEATHER SERVICE STATE COLLEGE PA
900 AM EDT SUN SEP 25 2016

Note: "fair" indicates few or no clouds below 12,000 feet with no
significant weather and/or obstructions to visibility.

* = STATION THAT DOES NOT REPORT PRECIPITATION /E.G. RAIN...SNOW...ETC/
    THUNDER OR FOG.

PAZ002>004-007>009-013>016-020>023-029>032-251400-
WESTERN PENNSYLVANIA

CITY           SKY/WX    TMP DP  RH WIND       PRES   REMARKS
ERIE           SUNNY     55  42  61 SE5       30.25R
MEADVILLE      SUNNY     50  39  66 E7        30.23S
FRANKLIN*        N/A     48  41  76 E5        30.24S
NEW CASTLE     FAIR      53  46  77 E6        30.22S
BEAVER COUNTY  NOT AVBL
BUTLER*        SUNNY     52  45  76 E8        30.23S
PITTSBURGH INT SUNNY     53  48  83 E6        30.20R
PITTSBURGH     SUNNY     53  45  74 NE5       30.19S
INDIANA*       SUNNY     54  45  71 E7        30.24S
LATROBE        SUNNY     50  50 100 CALM      30.21S
WASHINGTON CO* SUNNY     52  48  87 CALM      30.20S
$$

PAZ004>006-010>012-017>019-024>028-033>037-041-042-045-046-049>053-251400-
CENTRAL PENNSYLVANIA

CITY           SKY/WX    TMP DP  RH WIND       PRES   REMARKS
BRADFORD       SUNNY     47  43  86 CALM      30.25R
DUBOIS         SUNNY     49  41  74 E6        30.23R
CLEARFIELD     SUNNY     47  44  90 N3        30.25S
JOHNSTOWN      SUNNY     52  45  77 CALM      30.22S
ALTOONA        SUNNY     52  46  80 CALM      30.24S
STATE COLLEGE  SUNNY     48  45  87 CALM      30.25R
WILLIAMSPORT   MOSUNNY   50  47  89 W8        30.25S
SELINSGROVE    SUNNY     51  48  89 CALM      30.26S
FT INDIANTOWN  SUNNY     53  44  73 MISG      30.24S
CAPITAL CITY   SUNNY     56  47  71 CALM      30.24S
HARRISBURG     MOSUNNY   57  50  77 NW5       30.23S
YORK           SUNNY     54  50  86 CALM      30.24R
$$

PAZ038>040-043-044-047-048-054-055-060>062-067>071-251400-
EASTERN PENNSYLVANIA

CITY           SKY/WX    TMP DP  RH WIND       PRES   REMARKS
SCRANTON       SUNNY     48  43  82 SW5       30.24R
MOUNT POCONO   SUNNY     52  39  61 NE7       30.21R
ALLENTOWN      SUNNY     53  43  68 W3        30.24R
QUAKERTOWN*    SUNNY     55  41  58 N3        30.23S
READING        SUNNY     54  44  69 CALM      30.23S
LANCASTER      SUNNY     56  47  71 CALM      30.23S
COATESVILLE    SUNNY     55  43  62 VRB5      30.24S
POTTSTOWN      SUNNY     54  43  66 CALM      30.25R
BLUE BELL      SUNNY     54  43  66 CALM      30.22S
DOYLESTOWN     SUNNY     58  44  60 N7        30.22S
WILLOW GROVE   NOT AVBL
NORTH PHILA    SUNNY     60  42  51 N7        30.23S
PHILADELPHIA   MOSUNNY   60  41  49 N9        30.22S
$$




USA.gov is the U.S. government's official web portal to all federal, state and local government web resources and services.